RYR9MJ LEMH-EGCC

Flight info

Callsign RYR9MJ
Flight time 2h 26m
Altitude 36000
Route MEROS N853 LUMAS DCT SOFFY/N0439F380 DCT MRM DCT MTL DCT ETREK DCT MADOT DCT MOPEM DCT CACHI DCT AVLON DCT OKRIX DCT BRY DCT CLM DCT KOPOR DCT VESAN DCT RATUK DCT SOVAT L613 SANDY UN57 WELIN T420 ELVOS
Aircraft B738/M-SDE3FGILRWY/SB1

Departure

Time 2026-05-07 17:35
Airport Menorca Airport (LEMH)

Arrival

Time 2026-05-07 20:02
Airport Manchester Airport (EGCC)
Time Latitude Longitude Altitude Speed Heading
2026-05-07 17:23 39.86574 4.22425 297 ft 0 kts 99°
2026-05-07 17:27 39.86578 4.22397 298 ft 4 kts 107°
2026-05-07 17:27 39.86589 4.22365 297 ft 4 kts 128°
2026-05-07 17:28 39.86607 4.22346 298 ft 4 kts 177°
2026-05-07 17:28 39.86613 4.22346 297 ft 1 kts 186°
2026-05-07 17:30 39.86603 4.22345 298 ft 5 kts 188°
2026-05-07 17:30 39.86566 4.22336 297 ft 6 kts 192°
2026-05-07 17:31 39.86540 4.22294 296 ft 8 kts 259°
2026-05-07 17:31 39.86545 4.22213 296 ft 9 kts 277°
2026-05-07 17:31 39.86510 4.22155 297 ft 10 kts 194°
2026-05-07 17:31 39.86430 4.22138 298 ft 13 kts 188°
2026-05-07 17:32 39.86341 4.22122 294 ft 13 kts 191°
2026-05-07 17:32 39.86223 4.22096 295 ft 20 kts 189°
2026-05-07 17:32 39.86080 4.22067 294 ft 21 kts 189°
2026-05-07 17:32 39.85930 4.22036 295 ft 23 kts 189°
2026-05-07 17:33 39.85763 4.22001 297 ft 25 kts 189°
2026-05-07 17:33 39.85601 4.21968 292 ft 23 kts 188°
2026-05-07 17:33 39.85449 4.21937 290 ft 17 kts 189°
2026-05-07 17:33 39.85321 4.21910 285 ft 21 kts 189°
2026-05-07 17:34 39.85170 4.21879 281 ft 13 kts 189°
2026-05-07 17:34 39.85133 4.21791 282 ft 13 kts 278°
2026-05-07 17:34 39.85148 4.21678 284 ft 13 kts 284°
2026-05-07 17:34 39.85235 4.21656 290 ft 22 kts
2026-05-07 17:35 39.85634 4.21739 295 ft 93 kts
2026-05-07 17:35 39.86488 4.21912 306 ft 152 kts
2026-05-07 17:35 39.87552 4.22140 978 ft 155 kts 12°
2026-05-07 17:35 39.88676 4.22382 1623 ft 169 kts 14°
2026-05-07 17:36 39.89963 4.22665 1962 ft 206 kts 13°
2026-05-07 17:36 39.91469 4.22990 2242 ft 230 kts 12°
2026-05-07 17:36 39.93079 4.23327 2799 ft 240 kts 12°
2026-05-07 17:36 39.94731 4.23671 3469 ft 244 kts 12°
2026-05-07 17:37 39.96473 4.24040 3877 ft 261 kts 13°
2026-05-07 17:37 39.98286 4.24422 4766 ft 265 kts 12°
2026-05-07 17:37 40.00125 4.24810 5669 ft 270 kts 12°
2026-05-07 17:37 40.01992 4.25213 6519 ft 275 kts 12°
2026-05-07 17:38 40.03893 4.25659 7320 ft 280 kts 12°
2026-05-07 17:38 40.05824 4.26121 8171 ft 285 kts 12°
2026-05-07 17:38 40.07787 4.26592 9059 ft 288 kts 13°
2026-05-07 17:38 40.09779 4.27069 9867 ft 294 kts 12°
2026-05-07 17:39 40.11792 4.27551 10443 ft 306 kts 13°
2026-05-07 17:39 40.14008 4.28084 10660 ft 331 kts 12°
2026-05-07 17:39 40.16320 4.28637 11217 ft 342 kts 12°
2026-05-07 17:39 40.18676 4.29198 11963 ft 347 kts 12°
2026-05-07 17:40 40.21025 4.29757 12766 ft 349 kts 12°
2026-05-07 17:40 40.23432 4.30330 13524 ft 354 kts 12°
2026-05-07 17:40 40.25874 4.30913 14203 ft 359 kts 12°
2026-05-07 17:40 40.28346 4.31504 14890 ft 363 kts 11°
2026-05-07 17:41 40.30848 4.32102 15528 ft 369 kts 11°
2026-05-07 17:41 40.33394 4.32712 16201 ft 373 kts 11°
2026-05-07 17:41 40.35949 4.33323 16953 ft 375 kts 10°
2026-05-07 17:41 40.38532 4.33943 17623 ft 379 kts 10°
2026-05-07 17:42 40.41140 4.34569 18309 ft 382 kts
2026-05-07 17:42 40.43772 4.35201 18830 ft 388 kts
2026-05-07 17:42 40.44032 4.35263 18875 ft 389 kts
2026-05-07 17:42 40.45596 4.35639 19134 ft 393 kts
2026-05-07 17:43 40.48298 4.36289 19715 ft 397 kts
2026-05-07 17:43 40.51023 4.36944 20280 ft 401 kts
2026-05-07 17:43 40.53781 4.37599 20802 ft 405 kts
2026-05-07 17:43 40.56575 4.38260 21319 ft 410 kts
2026-05-07 17:44 40.59396 4.38927 21851 ft 414 kts
2026-05-07 17:44 40.62247 4.39602 22372 ft 418 kts
2026-05-07 17:44 40.65128 4.40285 22882 ft 423 kts
2026-05-07 17:44 40.68043 4.40978 23372 ft 427 kts
2026-05-07 17:45 40.70985 4.41677 23801 ft 432 kts
2026-05-07 17:45 40.73952 4.42384 24211 ft 436 kts
2026-05-07 17:45 40.76947 4.43098 24619 ft 439 kts
2026-05-07 17:45 40.79973 4.43820 25024 ft 443 kts
2026-05-07 17:46 40.83019 4.44548 25437 ft 447 kts
2026-05-07 17:46 40.86083 4.45281 25853 ft 450 kts
2026-05-07 17:46 40.89178 4.46021 26236 ft 454 kts
2026-05-07 17:46 40.92294 4.46773 26598 ft 458 kts
2026-05-07 17:47 40.95442 4.47541 26955 ft 461 kts
2026-05-07 17:47 40.98610 4.48319 27321 ft 465 kts
2026-05-07 17:47 40.98780 4.48360 27340 ft 465 kts
2026-05-07 17:47 41.00924 4.48887 27588 ft 467 kts
2026-05-07 17:48 41.04136 4.49674 27943 ft 471 kts
2026-05-07 17:48 41.07359 4.50464 28403 ft 472 kts
2026-05-07 17:48 41.10591 4.51255 28827 ft 473 kts
2026-05-07 17:48 41.13799 4.52036 29142 ft 477 kts
2026-05-07 17:49 41.17074 4.52834 29434 ft 481 kts
2026-05-07 17:49 41.20376 4.53639 29739 ft 484 kts
2026-05-07 17:49 41.23700 4.54452 30040 ft 487 kts
2026-05-07 17:49 41.27042 4.55271 30334 ft 489 kts
2026-05-07 17:50 41.30395 4.56094 30684 ft 490 kts
2026-05-07 17:50 41.33795 4.56930 30983 ft 491 kts
2026-05-07 17:50 41.37164 4.57758 31219 ft 494 kts
2026-05-07 17:50 41.40567 4.58595 31355 ft 499 kts
2026-05-07 17:51 41.43942 4.59426 31662 ft 500 kts
2026-05-07 17:51 41.47398 4.60280 32116 ft 497 kts
2026-05-07 17:51 41.50787 4.61119 32612 ft 494 kts
2026-05-07 17:51 41.54163 4.61954 32963 ft 494 kts
2026-05-07 17:52 41.57503 4.62780 33212 ft 496 kts
2026-05-07 17:52 41.60946 4.63631 33485 ft 497 kts
2026-05-07 17:52 41.63470 4.64257 33740 ft 497 kts
2026-05-07 17:53 41.66821 4.65089 34072 ft 496 kts
2026-05-07 17:53 41.70209 4.65931 34400 ft 495 kts
2026-05-07 17:53 41.73584 4.66786 34728 ft 494 kts
2026-05-07 17:53 41.76922 4.67891 35037 ft 494 kts 12°
2026-05-07 17:54 41.80219 4.69166 35384 ft 492 kts 14°
2026-05-07 17:54 41.83482 4.70504 35733 ft 490 kts 14°
2026-05-07 17:54 41.86734 4.71854 35994 ft 490 kts 14°
2026-05-07 17:54 41.90008 4.73198 35973 ft 494 kts 13°
2026-05-07 17:55 41.96593 4.75844 35970 ft 492 kts 13°
2026-05-07 17:55 42.03112 4.78422 35962 ft 485 kts 13°
2026-05-07 17:56 42.09594 4.80977 35976 ft 485 kts 13°
2026-05-07 17:56 42.16079 4.83540 35976 ft 486 kts 12°
2026-05-07 17:57 42.21508 4.85693 35973 ft 486 kts 12°
2026-05-07 17:57 42.24863 4.87026 35970 ft 485 kts 13°
2026-05-07 17:58 42.31342 4.89606 35979 ft 485 kts 12°
2026-05-07 17:58 42.37815 4.92188 35965 ft 485 kts 12°
2026-05-07 17:59 42.44285 4.94775 35967 ft 485 kts 12°
2026-05-07 17:59 42.50751 4.97365 35980 ft 484 kts 12°
2026-05-07 18:00 42.57207 4.99957 35969 ft 484 kts 12°
2026-05-07 18:00 42.63663 5.02555 35970 ft 484 kts 12°
2026-05-07 18:01 42.70115 5.05157 35969 ft 483 kts 12°
2026-05-07 18:01 42.76560 5.07761 35966 ft 483 kts 12°
2026-05-07 18:02 42.82827 5.10299 35968 ft 483 kts 12°
2026-05-07 18:03 42.88447 5.12580 35967 ft 483 kts 12°
2026-05-07 18:03 42.94927 5.15216 35974 ft 483 kts 12°
2026-05-07 18:04 43.01315 5.17819 35964 ft 482 kts 12°
2026-05-07 18:04 43.07741 5.20426 35965 ft 481 kts 12°
2026-05-07 18:05 43.14155 5.23018 35979 ft 480 kts 12°
2026-05-07 18:05 43.20555 5.25613 35957 ft 479 kts 12°
2026-05-07 18:06 43.26943 5.28211 35966 ft 478 kts 12°
2026-05-07 18:06 43.32236 5.30368 35980 ft 477 kts 11°
2026-05-07 18:06 43.35454 5.31323 35956 ft 469 kts 359°
2026-05-07 18:07 43.38675 5.31416 35981 ft 459 kts 349°
2026-05-07 18:07 43.42567 5.30556 35960 ft 446 kts 335°
2026-05-07 18:08 43.46970 5.28552 35963 ft 443 kts 333°
2026-05-07 18:08 43.52803 5.25793 35976 ft 444 kts 333°
2026-05-07 18:09 43.58661 5.23063 35969 ft 445 kts 334°
2026-05-07 18:09 43.64537 5.20361 35965 ft 445 kts 334°
2026-05-07 18:10 43.70424 5.17662 35965 ft 446 kts 334°
2026-05-07 18:10 43.76315 5.14957 35970 ft 446 kts 334°
2026-05-07 18:11 43.82210 5.12242 35969 ft 447 kts 334°
2026-05-07 18:11 43.88115 5.09517 35958 ft 447 kts 334°
2026-05-07 18:12 43.94013 5.06790 35976 ft 447 kts 334°
2026-05-07 18:12 43.97585 5.05134 35966 ft 447 kts 334°
2026-05-07 18:13 44.02024 5.03075 35958 ft 446 kts 334°
2026-05-07 18:13 44.07864 5.00361 35962 ft 445 kts 334°
2026-05-07 18:14 44.13727 4.97630 35983 ft 444 kts 335°
2026-05-07 18:14 44.19581 4.94897 35983 ft 443 kts 335°
2026-05-07 18:15 44.25426 4.92162 35969 ft 443 kts 335°
2026-05-07 18:15 44.31264 4.89426 35939 ft 442 kts 335°
2026-05-07 18:16 44.37090 4.86689 35946 ft 442 kts 335°
2026-05-07 18:16 44.42910 4.83949 35944 ft 441 kts 335°
2026-05-07 18:17 44.48721 4.81207 35949 ft 441 kts 335°
2026-05-07 18:17 44.52161 4.79581 35966 ft 441 kts 336°
2026-05-07 18:18 44.56759 4.77585 35942 ft 446 kts 343°
2026-05-07 18:18 44.62906 4.76179 35957 ft 449 kts 347°
2026-05-07 18:19 44.69086 4.74941 35955 ft 449 kts 346°
2026-05-07 18:19 44.75256 4.73633 35961 ft 448 kts 346°
2026-05-07 18:20 44.81418 4.72273 35965 ft 448 kts 346°
2026-05-07 18:20 44.87580 4.70898 35969 ft 448 kts 346°
2026-05-07 18:21 44.93741 4.69521 35973 ft 449 kts 346°
2026-05-07 18:21 44.99908 4.68142 35982 ft 449 kts 346°
2026-05-07 18:22 45.06076 4.66761 35977 ft 449 kts 346°
2026-05-07 18:22 45.09593 4.65971 35979 ft 449 kts 346°
2026-05-07 18:23 45.14569 4.64853 35980 ft 449 kts 346°
2026-05-07 18:23 45.20698 4.63471 35980 ft 449 kts 346°
2026-05-07 18:24 45.26856 4.62064 35993 ft 448 kts 346°
2026-05-07 18:24 45.33016 4.60648 36002 ft 448 kts 346°
2026-05-07 18:25 45.39171 4.59232 35986 ft 448 kts 346°
2026-05-07 18:25 45.45323 4.57815 36000 ft 447 kts 346°
2026-05-07 18:26 45.51468 4.56396 36004 ft 447 kts 346°
2026-05-07 18:26 45.57608 4.54976 35995 ft 447 kts 346°
2026-05-07 18:27 45.63738 4.53555 35994 ft 446 kts 346°
2026-05-07 18:27 45.67155 4.52761 35995 ft 446 kts 346°
2026-05-07 18:28 45.72226 4.51581 36007 ft 445 kts 346°
2026-05-07 18:28 45.78339 4.50159 35996 ft 445 kts 346°
2026-05-07 18:29 45.84440 4.48739 36000 ft 444 kts 346°
2026-05-07 18:29 45.90530 4.47317 36011 ft 443 kts 346°
2026-05-07 18:30 45.96618 4.45892 36005 ft 443 kts 346°
2026-05-07 18:30 46.02706 4.44464 35999 ft 443 kts 346°
2026-05-07 18:31 46.08786 4.43035 36013 ft 443 kts 346°
2026-05-07 18:31 46.14869 4.41601 35996 ft 443 kts 346°
2026-05-07 18:32 46.20955 4.40163 35998 ft 443 kts 346°
2026-05-07 18:32 46.24214 4.39392 35999 ft 443 kts 346°
2026-05-07 18:33 46.29503 4.38090 36014 ft 442 kts 344°
2026-05-07 18:33 46.35446 4.36094 36000 ft 441 kts 341°
2026-05-07 18:34 46.41397 4.33920 35998 ft 441 kts 341°
2026-05-07 18:34 46.47354 4.31780 35992 ft 441 kts 342°
2026-05-07 18:35 46.53321 4.29672 35998 ft 441 kts 342°
2026-05-07 18:35 46.59285 4.27573 36001 ft 441 kts 342°
2026-05-07 18:36 46.65244 4.25471 36001 ft 440 kts 342°
2026-05-07 18:36 46.71199 4.23364 35998 ft 440 kts 342°
2026-05-07 18:37 46.77147 4.21255 36001 ft 440 kts 342°
2026-05-07 18:37 46.80252 4.20152 36003 ft 440 kts 342°
2026-05-07 18:38 46.85412 4.18315 36007 ft 439 kts 342°
2026-05-07 18:38 46.91349 4.16198 36023 ft 439 kts 342°
2026-05-07 18:39 46.97283 4.14077 36007 ft 439 kts 341°
2026-05-07 18:39 47.03216 4.11952 36006 ft 439 kts 341°
2026-05-07 18:40 47.09066 4.09515 36021 ft 434 kts 334°
2026-05-07 18:40 47.14652 4.06171 36013 ft 433 kts 333°
2026-05-07 18:41 47.20211 4.02749 36019 ft 433 kts 333°
2026-05-07 18:41 47.25794 3.99385 36009 ft 434 kts 333°
2026-05-07 18:42 47.31359 3.96067 36008 ft 433 kts 333°
2026-05-07 18:42 47.34167 3.94393 36026 ft 433 kts 333°
2026-05-07 18:43 47.38975 3.91522 36019 ft 434 kts 333°
2026-05-07 18:43 47.44566 3.88174 36016 ft 434 kts 333°
2026-05-07 18:44 47.50157 3.84817 36027 ft 434 kts 333°
2026-05-07 18:44 47.55753 3.81451 36028 ft 434 kts 334°
2026-05-07 18:45 47.61356 3.78089 36019 ft 435 kts 334°
2026-05-07 18:45 47.66958 3.74730 36025 ft 434 kts 334°
2026-05-07 18:46 47.72560 3.71360 36027 ft 434 kts 334°
2026-05-07 18:46 47.78158 3.67983 36026 ft 435 kts 334°
2026-05-07 18:47 47.83762 3.64595 36026 ft 434 kts 334°
2026-05-07 18:47 47.86492 3.62941 36028 ft 434 kts 334°
2026-05-07 18:48 47.91452 3.59932 36020 ft 434 kts 334°
2026-05-07 18:48 47.97044 3.56532 36041 ft 434 kts 334°
2026-05-07 18:49 48.02628 3.53109 36027 ft 434 kts 334°
2026-05-07 18:49 48.08208 3.49670 36028 ft 433 kts 334°
2026-05-07 18:50 48.13745 3.46251 36036 ft 433 kts 334°
2026-05-07 18:50 48.19316 3.42805 36036 ft 433 kts 334°
2026-05-07 18:51 48.24889 3.39349 36032 ft 434 kts 334°
2026-05-07 18:51 48.30466 3.35884 36034 ft 434 kts 334°
2026-05-07 18:52 48.36042 3.32410 36038 ft 434 kts 334°
2026-05-07 18:52 48.38676 3.30767 36036 ft 434 kts 334°
2026-05-07 18:53 48.43623 3.27659 36043 ft 434 kts 334°
2026-05-07 18:53 48.49184 3.24112 36038 ft 434 kts 334°
2026-05-07 18:54 48.54748 3.20552 36034 ft 434 kts 334°
2026-05-07 18:54 48.59372 3.17590 36038 ft 434 kts 334°
2026-05-07 18:55 48.64936 3.14020 36048 ft 435 kts 334°
2026-05-07 18:55 48.70503 3.10441 36043 ft 435 kts 334°
2026-05-07 18:56 48.76073 3.06850 36037 ft 435 kts 334°
2026-05-07 18:56 48.81636 3.03257 36054 ft 435 kts 334°
2026-05-07 18:57 48.87099 2.99367 36054 ft 432 kts 327°
2026-05-07 18:57 48.90336 2.96538 36054 ft 431 kts 326°
2026-05-07 18:58 48.94182 2.93064 36053 ft 431 kts 326°
2026-05-07 18:58 48.99355 2.88425 36052 ft 431 kts 326°
2026-05-07 18:59 49.04543 2.83831 36059 ft 431 kts 327°
2026-05-07 18:59 49.09743 2.79245 36052 ft 432 kts 327°
2026-05-07 19:00 49.14928 2.74664 36048 ft 432 kts 327°
2026-05-07 19:00 49.20388 2.70785 36064 ft 435 kts 336°
2026-05-07 19:01 49.26088 2.67644 36065 ft 435 kts 337°
2026-05-07 19:01 49.31788 2.64498 36065 ft 436 kts 336°
2026-05-07 19:02 49.37475 2.61273 36055 ft 436 kts 336°
2026-05-07 19:02 49.40886 2.59314 36055 ft 436 kts 336°
2026-05-07 19:03 49.45185 2.56833 36054 ft 435 kts 336°
2026-05-07 19:03 49.50857 2.53551 36069 ft 436 kts 336°
2026-05-07 19:04 49.56532 2.50261 36053 ft 436 kts 336°
2026-05-07 19:04 49.62205 2.46964 36055 ft 436 kts 336°
2026-05-07 19:05 49.67876 2.43661 36058 ft 436 kts 336°
2026-05-07 19:05 49.73545 2.40351 36066 ft 435 kts 336°
2026-05-07 19:06 49.79213 2.37034 36060 ft 436 kts 336°
2026-05-07 19:06 49.87714 2.32042 36059 ft 436 kts 336°
2026-05-07 19:07 49.93380 2.28704 36056 ft 435 kts 336°
2026-05-07 19:07 49.95438 2.27489 36062 ft 435 kts 336°
2026-05-07 19:08 50.01127 2.24127 36065 ft 436 kts 336°
2026-05-07 19:08 50.06791 2.20770 36059 ft 436 kts 336°
2026-05-07 19:09 50.12453 2.17406 36057 ft 435 kts 336°
2026-05-07 19:09 50.18111 2.14036 36068 ft 435 kts 336°
2026-05-07 19:10 50.23726 2.10683 36067 ft 435 kts 336°
2026-05-07 19:10 50.29383 2.07296 36063 ft 435 kts 336°
2026-05-07 19:11 50.35028 2.03890 36054 ft 434 kts 334°
2026-05-07 19:11 50.40079 1.98933 36064 ft 426 kts 316°
2026-05-07 19:12 50.44524 1.92781 36055 ft 426 kts 315°
2026-05-07 19:12 50.46101 1.90577 36062 ft 426 kts 315°
2026-05-07 19:13 50.50548 1.84423 36071 ft 426 kts 316°
2026-05-07 19:13 50.55016 1.78293 36076 ft 426 kts 316°
2026-05-07 19:14 50.59485 1.72161 36069 ft 426 kts 316°
2026-05-07 19:14 50.63952 1.66015 36075 ft 426 kts 316°
2026-05-07 19:15 50.68410 1.59862 36055 ft 426 kts 316°
2026-05-07 19:15 50.72865 1.53693 36061 ft 426 kts 316°
2026-05-07 19:16 50.77314 1.47519 36062 ft 426 kts 315°
2026-05-07 19:16 50.81758 1.41341 36065 ft 425 kts 315°
2026-05-07 19:17 50.86201 1.35154 36065 ft 425 kts 315°
2026-05-07 19:17 50.87971 1.32684 36079 ft 425 kts 315°
2026-05-07 19:18 50.92407 1.26480 36074 ft 426 kts 315°
2026-05-07 19:18 50.96842 1.20262 36073 ft 425 kts 315°
2026-05-07 19:19 51.01271 1.14035 36075 ft 425 kts 315°
2026-05-07 19:19 51.05697 1.07798 36075 ft 425 kts 315°
2026-05-07 19:20 51.10018 1.01398 36076 ft 424 kts 313°
2026-05-07 19:20 51.14215 0.94804 36081 ft 424 kts 312°
2026-05-07 19:21 51.18415 0.88200 36005 ft 424 kts 313°
2026-05-07 19:21 51.22602 0.81651 35971 ft 425 kts 313°
2026-05-07 19:22 51.26824 0.75050 35950 ft 425 kts 313°
2026-05-07 19:22 51.28462 0.72487 35944 ft 425 kts 313°
2026-05-07 19:23 51.32681 0.65871 35938 ft 425 kts 313°
2026-05-07 19:23 51.34788 0.62558 36084 ft 425 kts 313°
2026-05-07 19:23 51.36895 0.59242 36078 ft 425 kts 313°
2026-05-07 19:24 51.41109 0.52595 36074 ft 425 kts 312°
2026-05-07 19:24 51.45316 0.45941 36073 ft 425 kts 312°
2026-05-07 19:25 51.49521 0.39272 36076 ft 425 kts 312°
2026-05-07 19:25 51.53718 0.32597 36072 ft 425 kts 312°
2026-05-07 19:26 51.57911 0.25910 36081 ft 424 kts 312°
2026-05-07 19:26 51.62098 0.19215 36073 ft 425 kts 312°
2026-05-07 19:27 51.66274 0.12496 36074 ft 424 kts 311°
2026-05-07 19:27 51.67816 0.09977 36073 ft 424 kts 311°
2026-05-07 19:28 51.71944 0.03180 36076 ft 424 kts 311°
2026-05-07 19:28 51.76067 -0.03627 36071 ft 424 kts 311°
2026-05-07 19:29 51.80190 -0.10443 36073 ft 424 kts 311°
2026-05-07 19:29 51.84268 -0.17193 36028 ft 412 kts 311°
2026-05-07 19:30 51.86233 -0.20450 36027 ft 397 kts 311°
2026-05-07 19:30 51.88126 -0.23588 36025 ft 383 kts 311°
2026-05-07 19:30 51.91779 -0.29673 36047 ft 375 kts 311°
2026-05-07 19:31 51.95417 -0.35755 36056 ft 377 kts 311°
2026-05-07 19:31 51.99072 -0.41877 36001 ft 380 kts 311°
2026-05-07 19:32 52.00896 -0.44937 35476 ft 385 kts 311°
2026-05-07 19:32 52.02756 -0.48061 34786 ft 392 kts 310°
2026-05-07 19:32 52.04065 -0.50263 34357 ft 395 kts 310°
2026-05-07 19:33 52.05978 -0.53480 33848 ft 396 kts 310°
2026-05-07 19:33 52.07886 -0.56691 33446 ft 393 kts 310°
2026-05-07 19:33 52.09772 -0.59868 33095 ft 388 kts 310°
2026-05-07 19:33 52.11638 -0.63017 32719 ft 385 kts 310°
2026-05-07 19:34 52.13488 -0.66145 32313 ft 383 kts 310°
2026-05-07 19:34 52.15328 -0.69262 31915 ft 381 kts 310°
2026-05-07 19:34 52.17156 -0.72363 31529 ft 378 kts 310°
2026-05-07 19:34 52.18971 -0.75443 31168 ft 376 kts 310°
2026-05-07 19:35 52.20773 -0.78506 30799 ft 373 kts 310°
2026-05-07 19:35 52.22563 -0.81551 30444 ft 371 kts 310°
2026-05-07 19:35 52.24371 -0.84536 30079 ft 370 kts 315°
2026-05-07 19:35 52.26432 -0.87065 29649 ft 372 kts 324°
2026-05-07 19:36 52.28637 -0.89248 29241 ft 370 kts 326°
2026-05-07 19:36 52.30850 -0.91391 28768 ft 369 kts 326°
2026-05-07 19:36 52.33049 -0.93527 28341 ft 367 kts 326°
2026-05-07 19:36 52.35230 -0.95664 27955 ft 364 kts 326°
2026-05-07 19:37 52.37395 -0.97804 27563 ft 362 kts 325°
2026-05-07 19:37 52.39437 -0.99834 27200 ft 360 kts 325°
2026-05-07 19:37 52.41177 -1.01568 26866 ft 359 kts 325°
2026-05-07 19:38 52.43308 -1.03691 26450 ft 358 kts 325°
2026-05-07 19:38 52.45430 -1.05808 26057 ft 356 kts 325°
2026-05-07 19:38 52.47540 -1.07915 25671 ft 355 kts 325°
2026-05-07 19:38 52.49644 -1.10018 25296 ft 353 kts 325°
2026-05-07 19:39 52.51736 -1.12111 24929 ft 352 kts 325°
2026-05-07 19:39 52.53818 -1.14198 24579 ft 350 kts 325°
2026-05-07 19:39 52.55193 -1.15577 24346 ft 349 kts 325°
2026-05-07 19:39 52.57259 -1.17650 23998 ft 347 kts 325°
2026-05-07 19:40 52.59307 -1.19727 23657 ft 345 kts 325°
2026-05-07 19:40 52.61338 -1.21816 23274 ft 344 kts 325°
2026-05-07 19:40 52.63360 -1.23894 22865 ft 342 kts 325°
2026-05-07 19:40 52.65377 -1.25954 22478 ft 340 kts 325°
2026-05-07 19:41 52.67387 -1.28002 22111 ft 339 kts 325°
2026-05-07 19:41 52.69384 -1.30035 21739 ft 337 kts 325°
2026-05-07 19:41 52.71375 -1.32062 21388 ft 335 kts 325°
2026-05-07 19:41 52.73355 -1.34077 21031 ft 334 kts 326°
2026-05-07 19:42 52.75326 -1.36083 20740 ft 332 kts 326°
2026-05-07 19:42 52.77288 -1.38084 20379 ft 331 kts 326°
2026-05-07 19:42 52.77779 -1.38586 20283 ft 331 kts 326°
2026-05-07 19:42 52.78729 -1.39559 20103 ft 331 kts 325°
2026-05-07 19:43 52.80684 -1.41569 19732 ft 331 kts 326°
2026-05-07 19:43 52.82395 -1.43335 19412 ft 330 kts 325°
2026-05-07 19:43 52.84339 -1.45349 19059 ft 330 kts 325°
2026-05-07 19:43 52.86280 -1.47364 18714 ft 329 kts 326°
2026-05-07 19:44 52.88216 -1.49350 18434 ft 326 kts 326°
2026-05-07 19:44 52.90136 -1.51308 18130 ft 323 kts 326°
2026-05-07 19:44 52.92045 -1.53257 17781 ft 322 kts 326°
2026-05-07 19:44 52.93948 -1.55205 17408 ft 321 kts 326°
2026-05-07 19:45 52.95840 -1.57147 17075 ft 319 kts 326°
2026-05-07 19:45 52.97721 -1.59082 16739 ft 318 kts 326°
2026-05-07 19:45 52.99597 -1.61011 16400 ft 316 kts 326°
2026-05-07 19:45 53.01464 -1.62935 16058 ft 316 kts 326°
2026-05-07 19:46 53.03330 -1.64860 15738 ft 315 kts 325°
2026-05-07 19:46 53.05175 -1.66796 15418 ft 312 kts 322°
2026-05-07 19:46 53.06744 -1.69238 15085 ft 307 kts 307°
2026-05-07 19:46 53.08099 -1.71972 14777 ft 305 kts 306°
2026-05-07 19:47 53.09442 -1.74703 14462 ft 305 kts 306°
2026-05-07 19:47 53.10793 -1.77392 14167 ft 303 kts 307°
2026-05-07 19:47 53.11074 -1.77949 14110 ft 303 kts 307°
2026-05-07 19:47 53.11564 -1.78914 14017 ft 302 kts 307°
2026-05-07 19:48 53.12918 -1.81560 13801 ft 298 kts 307°
2026-05-07 19:48 53.14254 -1.84159 13548 ft 294 kts 307°
2026-05-07 19:48 53.15581 -1.86741 13251 ft 292 kts 307°
2026-05-07 19:48 53.16896 -1.89302 12955 ft 290 kts 307°
2026-05-07 19:49 53.18203 -1.91850 12669 ft 288 kts 307°
2026-05-07 19:49 53.19496 -1.94374 12411 ft 285 kts 307°
2026-05-07 19:49 53.20761 -1.96842 12342 ft 275 kts 307°
2026-05-07 19:49 53.21982 -1.99227 12255 ft 266 kts 307°
2026-05-07 19:50 53.23172 -2.01554 12095 ft 261 kts 307°
2026-05-07 19:50 53.24576 -2.03441 11925 ft 262 kts 333°
2026-05-07 19:50 53.26368 -2.04027 11601 ft 270 kts
2026-05-07 19:50 53.28174 -2.03139 11301 ft 274 kts 26°
2026-05-07 19:51 53.29832 -2.01586 11056 ft 273 kts 29°
2026-05-07 19:51 53.31462 -1.99960 10799 ft 272 kts 30°
2026-05-07 19:51 53.33098 -1.98310 10414 ft 276 kts 30°
2026-05-07 19:51 53.34714 -1.96591 10018 ft 276 kts 38°
2026-05-07 19:52 53.36053 -1.94299 9607 ft 275 kts 49°
2026-05-07 19:52 53.37284 -1.91867 9170 ft 273 kts 50°
2026-05-07 19:52 53.38497 -1.89437 8749 ft 272 kts 50°
2026-05-07 19:52 53.39709 -1.87013 8341 ft 271 kts 50°
2026-05-07 19:53 53.40917 -1.84605 7912 ft 269 kts 50°
2026-05-07 19:53 53.42123 -1.82219 7516 ft 267 kts 50°
2026-05-07 19:53 53.43327 -1.79846 7111 ft 266 kts 50°
2026-05-07 19:53 53.44531 -1.77495 6685 ft 266 kts 48°
2026-05-07 19:54 53.46031 -1.75692 6155 ft 269 kts 19°
2026-05-07 19:54 53.47859 -1.75305 5703 ft 265 kts 350°
2026-05-07 19:54 53.49542 -1.76410 5254 ft 260 kts 319°
2026-05-07 19:54 53.50646 -1.78710 4980 ft 251 kts 288°
2026-05-07 19:55 53.51007 -1.81516 4744 ft 244 kts 272°
2026-05-07 19:55 53.51152 -1.84336 4597 ft 238 kts 270°
2026-05-07 19:55 53.51272 -1.87055 4588 ft 230 kts 270°
2026-05-07 19:55 53.51388 -1.89703 4596 ft 227 kts 270°
2026-05-07 19:56 53.51497 -1.92309 4598 ft 225 kts 268°
2026-05-07 19:56 53.51133 -1.94816 4605 ft 217 kts 233°
2026-05-07 19:56 53.50231 -1.96814 4601 ft 219 kts 230°
2026-05-07 19:56 53.49303 -1.98844 4402 ft 218 kts 229°
2026-05-07 19:57 53.48365 -2.00814 4094 ft 213 kts 228°
2026-05-07 19:57 53.47447 -2.02705 3831 ft 204 kts 227°
2026-05-07 19:57 53.46570 -2.04505 3539 ft 194 kts 227°
2026-05-07 19:57 53.45736 -2.06213 3285 ft 185 kts 227°
2026-05-07 19:58 53.44941 -2.07841 3039 ft 176 kts 227°
2026-05-07 19:58 53.44183 -2.09398 2809 ft 168 kts 227°
2026-05-07 19:58 53.43469 -2.10864 2582 ft 157 kts 227°
2026-05-07 19:58 53.42791 -2.12254 2374 ft 152 kts 227°
2026-05-07 19:59 53.42128 -2.13616 2218 ft 149 kts 226°
2026-05-07 19:59 53.41467 -2.14972 1979 ft 147 kts 226°
2026-05-07 19:59 53.40834 -2.16275 1765 ft 141 kts 226°
2026-05-07 19:59 53.40219 -2.17536 1571 ft 140 kts 226°
2026-05-07 20:00 53.39602 -2.18805 1387 ft 141 kts 226°
2026-05-07 20:00 53.38980 -2.20083 1183 ft 143 kts 227°
2026-05-07 20:00 53.38366 -2.21346 1003 ft 145 kts 227°
2026-05-07 20:00 53.37726 -2.22653 814 ft 145 kts 228°
2026-05-07 20:01 53.37080 -2.23962 590 ft 146 kts 230°
2026-05-07 20:01 53.36433 -2.25293 391 ft 150 kts 230°
2026-05-07 20:01 53.35786 -2.26635 272 ft 143 kts 232°
2026-05-07 20:01 53.35272 -2.27703 237 ft 88 kts 231°
2026-05-07 20:02 53.35008 -2.28273 231 ft 49 kts 242°
2026-05-07 20:02 53.34947 -2.28595 230 ft 14 kts 260°
2026-05-07 20:02 53.34968 -2.28739 227 ft 12 kts 324°
2026-05-07 20:02 53.35033 -2.28708 227 ft 9 kts 45°
2026-05-07 20:03 53.35069 -2.28639 228 ft 7 kts 51°
2026-05-07 20:03 53.35098 -2.28578 228 ft 7 kts 51°
2026-05-07 20:03 53.35132 -2.28505 226 ft 9 kts 52°
2026-05-07 20:03 53.35169 -2.28427 227 ft 7 kts 51°
2026-05-07 20:04 53.35191 -2.28382 230 ft 4 kts 51°
2026-05-07 20:04 53.35210 -2.28342 231 ft 5 kts 51°
2026-05-07 20:04 53.35246 -2.28271 231 ft 11 kts 48°
2026-05-07 20:04 53.35303 -2.28170 233 ft 12 kts 45°
2026-05-07 20:05 53.35362 -2.28072 237 ft 12 kts 44°
2026-05-07 20:05 53.35423 -2.27971 236 ft 14 kts 43°
2026-05-07 20:05 53.35491 -2.27865 239 ft 13 kts 44°
2026-05-07 20:05 53.35560 -2.27753 238 ft 14 kts 44°
2026-05-07 20:06 53.35628 -2.27642 243 ft 13 kts 44°
2026-05-07 20:06 53.35688 -2.27528 249 ft 13 kts 51°
2026-05-07 20:06 53.35744 -2.27412 254 ft 13 kts 51°
2026-05-07 20:06 53.35802 -2.27295 254 ft 13 kts 47°
2026-05-07 20:07 53.35804 -2.27164 254 ft 13 kts 126°
2026-05-07 20:07 53.35813 -2.27050 254 ft 3 kts 61°
2026-05-07 20:07 53.35820 -2.27030 254 ft 0 kts 60°
2026-05-07 20:08 53.35826 -2.27011 254 ft 7 kts 60°
2026-05-07 20:08 53.35867 -2.26910 255 ft 12 kts 52°
2026-05-07 20:08 53.35919 -2.26788 255 ft 13 kts 58°
2026-05-07 20:08 53.35985 -2.26743 255 ft 10 kts 340°
2026-05-07 20:09 53.36047 -2.26705 254 ft 11 kts 50°
2026-05-07 20:09 53.36097 -2.26574 254 ft 14 kts 56°
2026-05-07 20:09 53.36136 -2.26491 254 ft 2 kts 48°
2026-05-07 20:10 53.36180 -2.26518 254 ft 4 kts 320°
2026-05-07 20:10 53.36186 -2.26525 254 ft 0 kts 320°
2026-05-07 20:18 53.36186 -2.26526 254 ft 0 kts 321°